User: anonymous   Login
Location: Marsån
(66.4167°N, 22.2833°E)
Time: 19:47:08
(UTC+00:00)
Language:

DELTA 2 DEB (DPAF) - Orbit

View from above orbital plane
View from above orbital plane
View from above satellite
View from above satellite

Ground track
Ground track

The orbit data is extracted from the following two-line orbital elements,

1 29110U 06016D   24140.58305941  .00019898  00000-0  20928-2 0  9990
2 29110  98.4140 350.4826 0002772   8.8349  12.7608 14.89451971969499
Epoch (UTC): 19 May 2024 13:59:36
Eccentricity: 0.0002772
inclination: 98.4140°
perigee height: 598 km
apogee height: 601 km
right ascension of ascending node: 350.4826°
argument of perigee: 8.8349°
revolutions per day: 14.89451971
mean anomaly at epoch: 12.7608°
orbit number at epoch: 96949

The dashed part of the orbit path shows where the satellite is in the earth's shadow,  

DLR